FDX478 SVMI-SCEL

Flight info

Callsign FDX478
Flight time 6h 10m
Altitude 30000
Route VADOR2 MIQ UL216 PAY/N0501F310 UL216 AKPEP UL309 GRAFO/N0494F320 UL309 EMPEX/N0489F330 UL309 LOA UQ815 SIMOK SIMOK7B
Aircraft B77L/H-SDE1E2E3FGHIJ2J3J4J5M1RWXY/LB1D1

Departure

Time 2026-05-06 11:06
Airport Maiquetía Simón Bolívar International Airport (SVMI)

Arrival

Time 2026-05-06 17:17
Airport Comodoro Arturo Merino Benítez International Airport (SCEL)
Time Latitude Longitude Altitude Speed Heading
2026-05-06 10:35 10.59953 -67.00837 237 ft 0 kts 67°
2026-05-06 11:00 10.59954 -67.00835 234 ft 2 kts 67°
2026-05-06 11:01 10.59972 -67.00828 237 ft 3 kts 348°
2026-05-06 11:01 10.59980 -67.00851 240 ft 4 kts 282°
2026-05-06 11:01 10.59982 -67.00895 236 ft 10 kts 271°
2026-05-06 11:01 10.59982 -67.00964 237 ft 10 kts 268°
2026-05-06 11:02 10.59978 -67.01032 239 ft 10 kts 266°
2026-05-06 11:02 10.59975 -67.01099 240 ft 10 kts 266°
2026-05-06 11:02 10.59972 -67.01167 242 ft 10 kts 271°
2026-05-06 11:02 10.59983 -67.01233 244 ft 10 kts 302°
2026-05-06 11:03 10.60045 -67.01252 244 ft 10 kts 358°
2026-05-06 11:03 10.60112 -67.01255 245 ft 10 kts 358°
2026-05-06 11:03 10.60180 -67.01258 245 ft 10 kts 357°
2026-05-06 11:03 10.60247 -67.01261 245 ft 10 kts 357°
2026-05-06 11:04 10.60259 -67.01262 245 ft 0 kts 357°
2026-05-06 11:04 10.60261 -67.01262 245 ft 2 kts 357°
2026-05-06 11:04 10.60310 -67.01265 245 ft 10 kts 356°
2026-05-06 11:04 10.60364 -67.01265 245 ft 4 kts 20°
2026-05-06 11:05 10.60375 -67.01226 244 ft 8 kts 84°
2026-05-06 11:05 10.60376 -67.01223 244 ft 0 kts 84°
2026-05-06 11:05 10.60380 -67.01153 242 ft 37 kts 87°
2026-05-06 11:05 10.60397 -67.00662 231 ft 102 kts 88°
2026-05-06 11:06 10.60427 -66.99741 214 ft 157 kts 88°
2026-05-06 11:06 10.60468 -66.98477 238 ft 192 kts 88°
2026-05-06 11:06 10.60511 -66.97107 622 ft 197 kts 88°
2026-05-06 11:06 10.60550 -66.95702 1050 ft 201 kts 89°
2026-05-06 11:07 10.60634 -66.94259 1362 ft 213 kts 81°
2026-05-06 11:07 10.61018 -66.92751 1653 ft 222 kts 69°
2026-05-06 11:07 10.61904 -66.91436 1917 ft 239 kts 38°
2026-05-06 11:07 10.63441 -66.90674 2237 ft 248 kts 22°
2026-05-06 11:08 10.65023 -66.90129 3142 ft 232 kts 17°
2026-05-06 11:08 10.66618 -66.89881 3592 ft 240 kts 358°
2026-05-06 11:08 10.68341 -66.90027 3745 ft 257 kts 359°
2026-05-06 11:08 10.70168 -66.90073 4165 ft 264 kts
2026-05-06 11:09 10.72020 -66.90047 4733 ft 268 kts
2026-05-06 11:09 10.73893 -66.90001 5272 ft 272 kts
2026-05-06 11:09 10.75780 -66.89939 5802 ft 276 kts
2026-05-06 11:09 10.77704 -66.89867 6406 ft 278 kts
2026-05-06 11:10 10.79646 -66.89792 6953 ft 280 kts
2026-05-06 11:10 10.81587 -66.89718 7571 ft 278 kts
2026-05-06 11:10 10.83539 -66.89642 8061 ft 283 kts
2026-05-06 11:10 10.85528 -66.89540 8527 ft 288 kts
2026-05-06 11:11 10.87538 -66.89378 9026 ft 292 kts
2026-05-06 11:11 10.89577 -66.89202 9546 ft 296 kts
2026-05-06 11:11 10.91645 -66.89024 10061 ft 300 kts
2026-05-06 11:11 10.93759 -66.88845 10396 ft 311 kts
2026-05-06 11:12 10.95979 -66.88848 10463 ft 332 kts 349°
2026-05-06 11:12 10.98124 -66.89879 10610 ft 355 kts 321°
2026-05-06 11:12 10.99680 -66.91858 10770 ft 375 kts 296°
2026-05-06 11:12 11.00497 -66.94430 10969 ft 391 kts 278°
2026-05-06 11:13 11.00590 -66.97210 11465 ft 396 kts 262°
2026-05-06 11:13 10.99915 -66.99917 12035 ft 398 kts 244°
2026-05-06 11:13 10.98373 -67.02242 12590 ft 398 kts 221°
2026-05-06 11:13 10.96068 -67.03784 13084 ft 398 kts 197°
2026-05-06 11:14 10.93363 -67.04264 13577 ft 396 kts 174°
2026-05-06 11:14 10.90636 -67.03910 14105 ft 397 kts 166°
2026-05-06 11:14 10.87913 -67.03360 14611 ft 401 kts 166°
2026-05-06 11:14 10.85165 -67.02804 15172 ft 405 kts 166°
2026-05-06 11:15 10.82378 -67.02289 15719 ft 409 kts 167°
2026-05-06 11:15 10.79551 -67.01817 16233 ft 413 kts 168°
2026-05-06 11:15 10.76698 -67.01371 16745 ft 417 kts 169°
2026-05-06 11:15 10.73808 -67.00936 17254 ft 422 kts 169°
2026-05-06 11:16 10.70890 -67.00501 17773 ft 425 kts 169°
2026-05-06 11:16 10.67945 -67.00060 18256 ft 429 kts 169°
2026-05-06 11:16 10.64977 -66.99618 18679 ft 434 kts 171°
2026-05-06 11:16 10.61989 -66.99408 19096 ft 439 kts 178°
2026-05-06 11:17 10.58922 -66.99580 19549 ft 444 kts 185°
2026-05-06 11:17 10.55864 -67.00107 19995 ft 448 kts 192°
2026-05-06 11:17 10.52831 -67.00860 20413 ft 451 kts 193°
2026-05-06 11:17 10.49775 -67.01640 20837 ft 455 kts 193°
2026-05-06 11:18 10.46689 -67.02414 21277 ft 457 kts 193°
2026-05-06 11:18 10.44595 -67.02928 21595 ft 459 kts 193°
2026-05-06 11:18 10.41518 -67.03670 22042 ft 462 kts 193°
2026-05-06 11:18 10.38376 -67.04425 22505 ft 464 kts 193°
2026-05-06 11:19 10.35230 -67.05202 22949 ft 467 kts 194°
2026-05-06 11:19 10.32066 -67.05999 23402 ft 469 kts 194°
2026-05-06 11:19 10.28887 -67.06805 23788 ft 472 kts 194°
2026-05-06 11:19 10.25693 -67.07614 24141 ft 474 kts 194°
2026-05-06 11:20 10.21393 -67.08699 24619 ft 477 kts 194°
2026-05-06 11:20 10.19254 -67.09237 24852 ft 478 kts 194°
2026-05-06 11:20 10.16014 -67.10051 25180 ft 480 kts 194°
2026-05-06 11:20 10.12766 -67.10867 25500 ft 482 kts 194°
2026-05-06 11:21 10.09504 -67.11686 25802 ft 484 kts 194°
2026-05-06 11:21 10.06263 -67.12499 26092 ft 486 kts 194°
2026-05-06 11:21 10.02965 -67.13327 26407 ft 488 kts 194°
2026-05-06 11:21 9.99660 -67.14156 26716 ft 490 kts 194°
2026-05-06 11:22 9.96331 -67.14981 27022 ft 492 kts 193°
2026-05-06 11:22 9.92951 -67.15597 27298 ft 495 kts 189°
2026-05-06 11:22 9.89525 -67.16068 27571 ft 497 kts 188°
2026-05-06 11:22 9.86089 -67.16517 27860 ft 499 kts 188°
2026-05-06 11:23 9.82637 -67.16965 28144 ft 501 kts 188°
2026-05-06 11:23 9.79172 -67.17421 28417 ft 503 kts 188°
2026-05-06 11:23 9.75693 -67.17887 28672 ft 505 kts 188°
2026-05-06 11:23 9.72204 -67.18362 28922 ft 507 kts 188°
2026-05-06 11:24 9.68706 -67.18842 29170 ft 509 kts 188°
2026-05-06 11:24 9.65193 -67.19327 29388 ft 510 kts 188°
2026-05-06 11:24 9.61671 -67.19814 29673 ft 510 kts 188°
2026-05-06 11:24 9.58155 -67.20299 30033 ft 509 kts 188°
2026-05-06 11:25 9.54647 -67.20782 30348 ft 508 kts 188°
2026-05-06 11:25 9.51143 -67.21265 30649 ft 507 kts 188°
2026-05-06 11:25 9.47679 -67.21742 30931 ft 507 kts 188°
2026-05-06 11:25 9.44187 -67.22222 31221 ft 507 kts 188°
2026-05-06 11:26 9.40693 -67.22703 31493 ft 506 kts 188°
2026-05-06 11:26 9.37197 -67.23183 31771 ft 506 kts 188°
2026-05-06 11:26 9.33703 -67.23664 31956 ft 508 kts 189°
2026-05-06 11:27 9.26675 -67.24631 32020 ft 510 kts 188°
2026-05-06 11:27 9.19654 -67.25595 32024 ft 512 kts 188°
2026-05-06 11:28 9.12595 -67.26564 32022 ft 511 kts 188°
2026-05-06 11:28 9.05532 -67.27533 32031 ft 513 kts 188°
2026-05-06 11:29 8.98476 -67.28500 32022 ft 511 kts 188°
2026-05-06 11:29 8.91402 -67.29471 32018 ft 513 kts 188°
2026-05-06 11:30 8.84325 -67.30441 32016 ft 512 kts 188°
2026-05-06 11:30 8.77314 -67.31403 32021 ft 512 kts 188°
2026-05-06 11:31 8.70241 -67.32373 32015 ft 512 kts 188°
2026-05-06 11:31 8.63196 -67.33338 32017 ft 511 kts 188°
2026-05-06 11:32 8.56168 -67.34299 32016 ft 510 kts 188°
2026-05-06 11:32 8.49138 -67.35260 32009 ft 508 kts 188°
2026-05-06 11:33 8.42137 -67.36219 32002 ft 505 kts 188°
2026-05-06 11:33 8.35214 -67.37166 32004 ft 500 kts 188°
2026-05-06 11:34 8.28338 -67.38142 32011 ft 499 kts 189°
2026-05-06 11:34 8.21478 -67.39136 32006 ft 497 kts 189°
2026-05-06 11:35 8.14681 -67.40117 32007 ft 497 kts 189°
2026-05-06 11:35 8.07829 -67.41100 32010 ft 499 kts 188°
2026-05-06 11:36 8.00925 -67.42090 32022 ft 504 kts 188°
2026-05-06 11:36 7.93954 -67.43089 32010 ft 506 kts 188°
2026-05-06 11:37 7.86965 -67.44036 32010 ft 507 kts 186°
2026-05-06 11:37 7.79929 -67.44568 32012 ft 506 kts 184°
2026-05-06 11:38 7.72895 -67.45034 32008 ft 505 kts 184°
2026-05-06 11:38 7.65894 -67.45524 32006 ft 503 kts 184°
2026-05-06 11:39 7.58916 -67.46030 32005 ft 501 kts 184°
2026-05-06 11:39 7.52011 -67.46533 32001 ft 500 kts 184°
2026-05-06 11:40 7.45079 -67.47037 32005 ft 499 kts 184°
2026-05-06 11:40 7.38104 -67.47543 32006 ft 499 kts 184°
2026-05-06 11:41 7.31221 -67.48042 32006 ft 499 kts 184°
2026-05-06 11:41 7.24280 -67.48569 32001 ft 499 kts 185°
2026-05-06 11:42 7.17353 -67.49109 32005 ft 499 kts 185°
2026-05-06 11:42 7.10421 -67.49645 32004 ft 499 kts 185°
2026-05-06 11:43 7.03495 -67.50179 32001 ft 499 kts 185°
2026-05-06 11:43 6.96572 -67.50711 32003 ft 497 kts 184°
2026-05-06 11:44 6.86286 -67.51502 32000 ft 495 kts 184°
2026-05-06 11:44 6.79421 -67.52029 32003 ft 493 kts 184°
2026-05-06 11:45 6.72577 -67.52555 32003 ft 492 kts 184°
2026-05-06 11:45 6.65747 -67.53062 32004 ft 492 kts 184°
2026-05-06 11:46 6.58953 -67.53559 32012 ft 493 kts 184°
2026-05-06 11:46 6.52100 -67.54062 32008 ft 494 kts 184°
2026-05-06 11:47 6.45241 -67.54568 31999 ft 494 kts 184°
2026-05-06 11:47 6.38364 -67.55074 31990 ft 495 kts 184°
2026-05-06 11:48 6.31532 -67.55578 31973 ft 495 kts 184°
2026-05-06 11:48 6.24608 -67.56089 31969 ft 496 kts 184°
2026-05-06 11:49 6.17776 -67.56617 31970 ft 495 kts 184°
2026-05-06 11:49 6.10900 -67.57158 31973 ft 495 kts 184°
2026-05-06 11:50 6.04029 -67.57696 31978 ft 495 kts 184°
2026-05-06 11:50 5.97159 -67.58232 31994 ft 495 kts 184°
2026-05-06 11:51 5.90289 -67.58767 32005 ft 495 kts 184°
2026-05-06 11:51 5.83410 -67.59302 32016 ft 495 kts 184°
2026-05-06 11:52 5.76539 -67.59837 32020 ft 495 kts 184°
2026-05-06 11:52 5.69673 -67.60372 32010 ft 495 kts 184°
2026-05-06 11:53 5.62850 -67.60540 32013 ft 494 kts 174°
2026-05-06 11:53 5.56101 -67.59341 32014 ft 492 kts 163°
2026-05-06 11:54 5.49589 -67.57236 32023 ft 492 kts 161°
2026-05-06 11:54 5.43091 -67.55081 32014 ft 492 kts 161°
2026-05-06 11:55 5.36587 -67.52960 32021 ft 491 kts 162°
2026-05-06 11:55 5.30076 -67.50865 32023 ft 491 kts 162°
2026-05-06 11:56 5.23567 -67.48776 32032 ft 490 kts 162°
2026-05-06 11:56 5.17068 -67.46692 32028 ft 490 kts 162°
2026-05-06 11:57 5.10613 -67.44619 32025 ft 489 kts 161°
2026-05-06 11:57 5.04130 -67.42538 32033 ft 489 kts 161°
2026-05-06 11:58 4.97647 -67.40457 32035 ft 489 kts 161°
2026-05-06 11:58 4.91170 -67.38378 32040 ft 489 kts 161°
2026-05-06 11:59 4.84679 -67.36296 32041 ft 489 kts 161°
2026-05-06 11:59 4.78180 -67.34211 32033 ft 490 kts 161°
2026-05-06 12:00 4.71727 -67.32141 32049 ft 490 kts 161°
2026-05-06 12:00 4.65242 -67.30062 32043 ft 489 kts 161°
2026-05-06 12:01 4.58747 -67.27979 32044 ft 489 kts 161°
2026-05-06 12:01 4.52254 -67.25898 32048 ft 489 kts 161°
2026-05-06 12:02 4.45773 -67.23821 32041 ft 489 kts 161°
2026-05-06 12:02 4.39289 -67.21743 32050 ft 489 kts 161°
2026-05-06 12:03 4.32800 -67.19664 32051 ft 490 kts 161°
2026-05-06 12:03 4.26336 -67.17594 32049 ft 492 kts 161°
2026-05-06 12:04 4.19820 -67.15509 32038 ft 492 kts 161°
2026-05-06 12:04 4.13307 -67.13421 32040 ft 490 kts 161°
2026-05-06 12:05 4.06802 -67.11338 32034 ft 491 kts 161°
2026-05-06 12:05 4.00300 -67.09257 32041 ft 490 kts 161°
2026-05-06 12:06 3.93809 -67.07179 32039 ft 490 kts 161°
2026-05-06 12:06 3.88412 -67.05449 32036 ft 490 kts 161°
2026-05-06 12:07 3.81919 -67.03368 32037 ft 490 kts 161°
2026-05-06 12:07 3.75419 -67.01284 32038 ft 490 kts 161°
2026-05-06 12:08 3.68923 -66.99202 32039 ft 490 kts 161°
2026-05-06 12:08 3.62421 -66.97118 32040 ft 491 kts 161°
2026-05-06 12:09 3.55907 -66.95032 32038 ft 490 kts 161°
2026-05-06 12:09 3.49408 -66.92950 32038 ft 490 kts 161°
2026-05-06 12:10 3.42910 -66.90868 32036 ft 490 kts 161°
2026-05-06 12:10 3.36461 -66.88803 32039 ft 489 kts 161°
2026-05-06 12:11 3.29969 -66.86725 32039 ft 489 kts 161°
2026-05-06 12:11 3.23481 -66.84648 32043 ft 489 kts 161°
2026-05-06 12:12 3.16999 -66.82573 32036 ft 489 kts 161°
2026-05-06 12:12 3.10525 -66.80500 32044 ft 488 kts 161°
2026-05-06 12:13 3.04094 -66.78443 32042 ft 488 kts 161°
2026-05-06 12:13 2.97624 -66.76372 32043 ft 488 kts 161°
2026-05-06 12:14 2.91156 -66.74303 32039 ft 488 kts 161°
2026-05-06 12:14 2.84688 -66.72233 32035 ft 488 kts 161°
2026-05-06 12:15 2.78218 -66.70164 32038 ft 488 kts 161°
2026-05-06 12:15 2.71739 -66.68092 32038 ft 488 kts 161°
2026-05-06 12:16 2.65276 -66.66025 32040 ft 488 kts 161°
2026-05-06 12:16 2.58799 -66.63954 32035 ft 488 kts 161°
2026-05-06 12:17 2.52359 -66.61895 32051 ft 488 kts 161°
2026-05-06 12:17 2.45886 -66.59825 32040 ft 488 kts 161°
2026-05-06 12:18 2.39416 -66.57758 32038 ft 487 kts 161°
2026-05-06 12:18 2.32965 -66.55696 32042 ft 487 kts 161°
2026-05-06 12:19 2.26513 -66.53634 32044 ft 486 kts 161°
2026-05-06 12:19 2.20060 -66.51572 32036 ft 486 kts 161°
2026-05-06 12:20 2.13614 -66.49512 32040 ft 487 kts 161°
2026-05-06 12:20 2.07155 -66.47448 32040 ft 487 kts 161°
2026-05-06 12:21 2.00736 -66.45397 32040 ft 487 kts 161°
2026-05-06 12:21 1.94265 -66.43330 32042 ft 488 kts 160°
2026-05-06 12:22 1.87796 -66.41264 32039 ft 488 kts 161°
2026-05-06 12:22 1.81317 -66.39194 32039 ft 488 kts 161°
2026-05-06 12:23 1.74841 -66.37126 32044 ft 489 kts 161°
2026-05-06 12:23 1.68363 -66.35057 32042 ft 489 kts 161°
2026-05-06 12:24 1.61877 -66.32986 32038 ft 489 kts 161°
2026-05-06 12:24 1.55437 -66.30929 32049 ft 489 kts 161°
2026-05-06 12:25 1.48952 -66.28859 32045 ft 490 kts 161°
2026-05-06 12:25 1.42460 -66.26786 32043 ft 489 kts 161°
2026-05-06 12:26 1.35971 -66.24714 32037 ft 489 kts 161°
2026-05-06 12:26 1.29521 -66.22655 32042 ft 489 kts 161°
2026-05-06 12:27 1.23041 -66.20586 32053 ft 489 kts 161°
2026-05-06 12:27 1.16557 -66.18517 32047 ft 489 kts 161°
2026-05-06 12:28 1.10078 -66.16449 32054 ft 489 kts 161°
2026-05-06 12:28 1.03590 -66.14378 32059 ft 489 kts 161°
2026-05-06 12:29 0.97108 -66.12308 32062 ft 490 kts 161°
2026-05-06 12:29 0.90652 -66.10247 32056 ft 490 kts 161°
2026-05-06 12:30 0.84157 -66.08176 32061 ft 490 kts 161°
2026-05-06 12:30 0.77418 -66.07068 32077 ft 494 kts 177°
2026-05-06 12:31 0.70562 -66.07668 32080 ft 497 kts 188°
2026-05-06 12:31 0.63762 -66.08953 32071 ft 498 kts 189°
2026-05-06 12:32 0.56941 -66.10237 32063 ft 498 kts 188°
2026-05-06 12:32 0.50121 -66.11469 32067 ft 498 kts 188°
2026-05-06 12:33 0.43280 -66.12682 32060 ft 499 kts 188°
2026-05-06 12:33 0.36484 -66.13886 32047 ft 498 kts 188°
2026-05-06 12:34 0.29656 -66.15098 32046 ft 498 kts 188°
2026-05-06 12:34 0.22825 -66.16313 32051 ft 498 kts 188°
2026-05-06 12:35 0.16002 -66.17526 32052 ft 497 kts 188°
2026-05-06 12:35 0.09239 -66.18728 32057 ft 497 kts 188°
2026-05-06 12:36 0.02417 -66.19941 32058 ft 497 kts 188°
2026-05-06 12:36 -0.04387 -66.21150 32053 ft 497 kts 188°
2026-05-06 12:37 -0.11194 -66.22361 32069 ft 496 kts 188°
2026-05-06 12:37 -0.17997 -66.23568 32064 ft 496 kts 188°
2026-05-06 12:38 -0.24797 -66.24772 32066 ft 496 kts 188°
2026-05-06 12:38 -0.31568 -66.25971 32052 ft 496 kts 188°
2026-05-06 12:39 -0.38358 -66.27175 32068 ft 496 kts 188°
2026-05-06 12:39 -0.45158 -66.28381 32061 ft 496 kts 188°
2026-05-06 12:40 -0.51957 -66.29583 32060 ft 496 kts 188°
2026-05-06 12:40 -0.58748 -66.30783 32066 ft 495 kts 188°
2026-05-06 12:41 -0.65537 -66.31984 32066 ft 495 kts 188°
2026-05-06 12:41 -0.72328 -66.33185 32066 ft 495 kts 188°
2026-05-06 12:42 -0.79117 -66.34386 32064 ft 495 kts 188°
2026-05-06 12:42 -0.85909 -66.35588 32057 ft 495 kts 188°
2026-05-06 12:43 -0.92650 -66.36780 32065 ft 496 kts 188°
2026-05-06 12:43 -0.99446 -66.37983 32068 ft 496 kts 187°
2026-05-06 12:44 -1.06242 -66.39185 32053 ft 496 kts 187°
2026-05-06 12:44 -1.13044 -66.40389 32068 ft 496 kts 187°
2026-05-06 12:45 -1.19850 -66.41593 32066 ft 496 kts 187°
2026-05-06 12:46 -1.30051 -66.43398 32069 ft 497 kts 187°
2026-05-06 12:46 -1.36873 -66.44605 32061 ft 497 kts 187°
2026-05-06 12:47 -1.43643 -66.45803 32060 ft 498 kts 187°
2026-05-06 12:47 -1.50469 -66.47012 32063 ft 498 kts 187°
2026-05-06 12:48 -1.57299 -66.48221 32069 ft 498 kts 187°
2026-05-06 12:48 -1.64130 -66.49430 32067 ft 499 kts 187°
2026-05-06 12:49 -1.70970 -66.50641 32066 ft 499 kts 187°
2026-05-06 12:49 -1.77819 -66.51854 32067 ft 500 kts 187°
2026-05-06 12:50 -1.84679 -66.53069 32067 ft 501 kts 188°
2026-05-06 12:50 -1.91541 -66.54282 32068 ft 501 kts 187°
2026-05-06 12:51 -1.98392 -66.55442 32071 ft 502 kts 187°
2026-05-06 12:51 -2.05289 -66.56593 32069 ft 503 kts 187°
2026-05-06 12:52 -2.12191 -66.57754 32070 ft 503 kts 187°
2026-05-06 12:52 -2.19093 -66.58918 32069 ft 502 kts 187°
2026-05-06 12:53 -2.25985 -66.60076 32068 ft 502 kts 187°
2026-05-06 12:53 -2.32873 -66.61232 32072 ft 501 kts 187°
2026-05-06 12:54 -2.39709 -66.62381 32068 ft 501 kts 187°
2026-05-06 12:54 -2.46589 -66.63537 32070 ft 501 kts 187°
2026-05-06 12:55 -2.53465 -66.64693 32069 ft 501 kts 187°
2026-05-06 12:55 -2.60348 -66.65850 32059 ft 501 kts 187°
2026-05-06 12:56 -2.67239 -66.67009 32068 ft 502 kts 187°
2026-05-06 12:56 -2.74126 -66.68178 32071 ft 502 kts 187°
2026-05-06 12:57 -2.80975 -66.69344 32071 ft 502 kts 187°
2026-05-06 12:57 -2.87877 -66.70518 32068 ft 503 kts 187°
2026-05-06 12:58 -2.93624 -66.71496 32074 ft 504 kts 187°
2026-05-06 12:58 -3.00539 -66.72671 32073 ft 504 kts 187°
2026-05-06 12:59 -3.07485 -66.73852 32076 ft 505 kts 187°
2026-05-06 12:59 -3.14382 -66.75025 32070 ft 506 kts 187°
2026-05-06 13:00 -3.21332 -66.76207 32077 ft 507 kts 187°
2026-05-06 13:00 -3.28292 -66.77392 32070 ft 507 kts 187°
2026-05-06 13:01 -3.35251 -66.78576 32073 ft 507 kts 187°
2026-05-06 13:01 -3.42208 -66.79760 32073 ft 507 kts 187°
2026-05-06 13:02 -3.49168 -66.80945 32074 ft 507 kts 187°
2026-05-06 13:02 -3.56136 -66.82130 32069 ft 507 kts 187°
2026-05-06 13:03 -3.63052 -66.83301 32076 ft 507 kts 187°
2026-05-06 13:03 -3.70009 -66.84479 32078 ft 507 kts 188°
2026-05-06 13:04 -3.76960 -66.85659 32073 ft 507 kts 188°
2026-05-06 13:04 -3.83914 -66.86845 32074 ft 507 kts 188°
2026-05-06 13:05 -3.90870 -66.88031 32072 ft 507 kts 188°
2026-05-06 13:05 -3.97826 -66.89216 32075 ft 507 kts 188°
2026-05-06 13:06 -4.04780 -66.90399 32072 ft 507 kts 188°
2026-05-06 13:06 -4.11735 -66.91578 32071 ft 506 kts 188°
2026-05-06 13:07 -4.18691 -66.92757 32071 ft 506 kts 188°
2026-05-06 13:07 -4.25631 -66.93935 32070 ft 506 kts 188°
2026-05-06 13:08 -4.32573 -66.95115 32070 ft 506 kts 188°
2026-05-06 13:08 -4.39474 -66.96287 32072 ft 505 kts 188°
2026-05-06 13:09 -4.46405 -66.97465 32073 ft 505 kts 188°
2026-05-06 13:09 -4.53336 -66.98642 32070 ft 505 kts 188°
2026-05-06 13:10 -4.60253 -66.99818 32072 ft 504 kts 188°
2026-05-06 13:10 -4.67174 -67.00994 32071 ft 504 kts 188°
2026-05-06 13:11 -4.74080 -67.02169 32070 ft 503 kts 188°
2026-05-06 13:11 -4.80986 -67.03343 32068 ft 503 kts 188°
2026-05-06 13:12 -4.87893 -67.04518 32068 ft 503 kts 188°
2026-05-06 13:12 -4.94804 -67.05694 32068 ft 504 kts 188°
2026-05-06 13:13 -5.01676 -67.06863 32070 ft 504 kts 188°
2026-05-06 13:13 -5.08599 -67.08042 32068 ft 505 kts 188°
2026-05-06 13:14 -5.15539 -67.09222 32068 ft 506 kts 188°
2026-05-06 13:14 -5.22487 -67.10406 32069 ft 506 kts 188°
2026-05-06 13:15 -5.29402 -67.11584 32070 ft 507 kts 188°
2026-05-06 13:15 -5.36406 -67.12777 32067 ft 507 kts 188°
2026-05-06 13:16 -5.43325 -67.13956 32070 ft 508 kts 188°
2026-05-06 13:16 -5.50302 -67.15146 32064 ft 508 kts 188°
2026-05-06 13:17 -5.57276 -67.16335 32065 ft 508 kts 188°
2026-05-06 13:17 -5.64256 -67.17526 32063 ft 509 kts 188°
2026-05-06 13:18 -5.71233 -67.18721 32066 ft 508 kts 188°
2026-05-06 13:18 -5.78166 -67.19910 32062 ft 508 kts 188°
2026-05-06 13:19 -5.85138 -67.21106 32065 ft 508 kts 188°
2026-05-06 13:19 -5.92116 -67.22303 32066 ft 508 kts 188°
2026-05-06 13:20 -5.99095 -67.23499 32064 ft 508 kts 188°
2026-05-06 13:20 -6.06069 -67.24696 32068 ft 508 kts 188°
2026-05-06 13:21 -6.13041 -67.25892 32068 ft 508 kts 188°
2026-05-06 13:21 -6.19966 -67.27081 32062 ft 508 kts 188°
2026-05-06 13:22 -6.26934 -67.28278 32063 ft 508 kts 188°
2026-05-06 13:22 -6.33906 -67.29475 32063 ft 508 kts 188°
2026-05-06 13:23 -6.40876 -67.30673 32064 ft 508 kts 188°
2026-05-06 13:23 -6.47849 -67.31871 32061 ft 508 kts 189°
2026-05-06 13:24 -6.54807 -67.33067 32060 ft 507 kts 189°
2026-05-06 13:24 -6.61773 -67.34265 32065 ft 507 kts 189°
2026-05-06 13:25 -6.68725 -67.35461 32064 ft 507 kts 189°
2026-05-06 13:25 -6.75675 -67.36656 32062 ft 506 kts 189°
2026-05-06 13:26 -6.82573 -67.37843 32063 ft 506 kts 189°
2026-05-06 13:26 -6.89527 -67.39041 32061 ft 506 kts 189°
2026-05-06 13:27 -6.96468 -67.40236 32061 ft 505 kts 189°
2026-05-06 13:27 -7.03405 -67.41430 32062 ft 505 kts 189°
2026-05-06 13:28 -7.10296 -67.42612 32057 ft 505 kts 189°
2026-05-06 13:28 -7.17236 -67.43801 32059 ft 505 kts 189°
2026-05-06 13:29 -7.24168 -67.44990 32060 ft 505 kts 189°
2026-05-06 13:29 -7.31088 -67.46178 32062 ft 504 kts 189°
2026-05-06 13:30 -7.37971 -67.47360 32065 ft 505 kts 189°
2026-05-06 13:30 -7.44897 -67.48550 32058 ft 505 kts 189°
2026-05-06 13:31 -7.51819 -67.49739 32065 ft 505 kts 189°
2026-05-06 13:31 -7.58742 -67.50929 32061 ft 504 kts 189°
2026-05-06 13:32 -7.65663 -67.52119 32063 ft 504 kts 189°
2026-05-06 13:32 -7.72589 -67.53311 32071 ft 505 kts 189°
2026-05-06 13:33 -7.79477 -67.54496 32062 ft 505 kts 189°
2026-05-06 13:33 -7.86406 -67.55688 32069 ft 504 kts 189°
2026-05-06 13:34 -7.93334 -67.56881 32067 ft 504 kts 189°
2026-05-06 13:34 -8.00253 -67.58073 32068 ft 504 kts 189°
2026-05-06 13:35 -8.07137 -67.59259 32071 ft 504 kts 189°
2026-05-06 13:35 -8.14054 -67.60451 32071 ft 504 kts 189°
2026-05-06 13:36 -8.20975 -67.61645 32070 ft 504 kts 189°
2026-05-06 13:36 -8.27886 -67.62837 32068 ft 504 kts 189°
2026-05-06 13:37 -8.34800 -67.64030 32068 ft 503 kts 189°
2026-05-06 13:37 -8.41661 -67.65214 32067 ft 503 kts 189°
2026-05-06 13:38 -8.48578 -67.66408 32068 ft 503 kts 189°
2026-05-06 13:38 -8.55492 -67.67602 32068 ft 503 kts 189°
2026-05-06 13:39 -8.62396 -67.68795 32068 ft 503 kts 189°
2026-05-06 13:39 -8.69272 -67.69984 32071 ft 503 kts 189°
2026-05-06 13:40 -8.76176 -67.71178 32069 ft 504 kts 189°
2026-05-06 13:40 -8.83094 -67.72375 32070 ft 504 kts 189°
2026-05-06 13:41 -8.90010 -67.73572 32067 ft 504 kts 189°
2026-05-06 13:41 -8.96922 -67.74768 32066 ft 504 kts 189°
2026-05-06 13:42 -9.03839 -67.75966 32069 ft 504 kts 189°
2026-05-06 13:42 -9.10755 -67.77165 32067 ft 504 kts 189°
2026-05-06 13:43 -9.17621 -67.78355 32069 ft 504 kts 189°
2026-05-06 13:43 -9.24545 -67.79554 32067 ft 504 kts 189°
2026-05-06 13:44 -9.31457 -67.80751 32068 ft 504 kts 189°
2026-05-06 13:44 -9.38364 -67.81949 32069 ft 504 kts 189°
2026-05-06 13:45 -9.45285 -67.83149 32067 ft 504 kts 189°
2026-05-06 13:45 -9.55665 -67.84950 32066 ft 504 kts 189°
2026-05-06 13:46 -9.62545 -67.86144 32074 ft 504 kts 189°
2026-05-06 13:46 -9.69463 -67.87347 32070 ft 504 kts 189°
2026-05-06 13:47 -9.76381 -67.88549 32074 ft 504 kts 189°
2026-05-06 13:47 -9.82127 -67.89548 32079 ft 504 kts 189°
2026-05-06 13:48 -9.89054 -67.90616 32078 ft 503 kts 184°
2026-05-06 13:48 -9.96045 -67.90908 32079 ft 503 kts 181°
2026-05-06 13:49 -10.03055 -67.91108 32073 ft 503 kts 181°
2026-05-06 13:49 -10.10008 -67.91342 32075 ft 503 kts 181°
2026-05-06 13:50 -10.17011 -67.91605 32068 ft 503 kts 182°
2026-05-06 13:50 -10.24024 -67.91874 32067 ft 503 kts 182°
2026-05-06 13:51 -10.31030 -67.92140 32061 ft 503 kts 182°
2026-05-06 13:51 -10.38037 -67.92405 32068 ft 503 kts 182°
2026-05-06 13:52 -10.45044 -67.92671 32066 ft 503 kts 182°
2026-05-06 13:52 -10.52000 -67.92934 32065 ft 504 kts 181°
2026-05-06 13:53 -10.59007 -67.93199 32065 ft 504 kts 182°
2026-05-06 13:53 -10.66009 -67.93469 32064 ft 504 kts 182°
2026-05-06 13:54 -10.73006 -67.93811 32068 ft 503 kts 182°
2026-05-06 13:54 -10.80009 -67.94181 32062 ft 503 kts 182°
2026-05-06 13:55 -10.87007 -67.94543 32063 ft 503 kts 182°
2026-05-06 13:55 -10.94004 -67.94897 32066 ft 503 kts 182°
2026-05-06 13:56 -11.01012 -67.95250 32062 ft 504 kts 182°
2026-05-06 13:56 -11.08016 -67.95602 32067 ft 503 kts 182°
2026-05-06 13:57 -11.15016 -67.95956 32063 ft 504 kts 182°
2026-05-06 13:57 -11.22018 -67.96309 32062 ft 504 kts 182°
2026-05-06 13:58 -11.28969 -67.96661 32063 ft 504 kts 182°
2026-05-06 13:58 -11.35977 -67.97015 32060 ft 504 kts 182°
2026-05-06 13:59 -11.42981 -67.97369 32059 ft 504 kts 182°
2026-05-06 13:59 -11.49978 -67.97723 32066 ft 504 kts 182°
2026-05-06 14:00 -11.56995 -67.98078 32062 ft 504 kts 182°
2026-05-06 14:00 -11.64000 -67.98433 32065 ft 504 kts 182°
2026-05-06 14:01 -11.71002 -67.98788 32063 ft 504 kts 182°
2026-05-06 14:01 -11.77964 -67.99141 32063 ft 504 kts 182°
2026-05-06 14:02 -11.84968 -67.99496 32068 ft 504 kts 182°
2026-05-06 14:02 -11.91986 -67.99852 32065 ft 504 kts 182°
2026-05-06 14:03 -11.98990 -68.00208 32070 ft 504 kts 182°
2026-05-06 14:03 -12.05999 -68.00564 32065 ft 504 kts 182°
2026-05-06 14:04 -12.13015 -68.00921 32068 ft 504 kts 182°
2026-05-06 14:04 -12.20030 -68.01278 32070 ft 504 kts 182°
2026-05-06 14:05 -12.27001 -68.01633 32069 ft 505 kts 182°
2026-05-06 14:05 -12.34024 -68.01991 32067 ft 505 kts 182°
2026-05-06 14:06 -12.41054 -68.02350 32071 ft 506 kts 182°
2026-05-06 14:06 -12.48096 -68.02709 32071 ft 506 kts 182°
2026-05-06 14:07 -12.55141 -68.03069 32063 ft 507 kts 182°
2026-05-06 14:07 -12.62190 -68.03429 32071 ft 507 kts 182°
2026-05-06 14:08 -12.69244 -68.03790 32074 ft 508 kts 182°
2026-05-06 14:08 -12.76319 -68.04152 32066 ft 509 kts 182°
2026-05-06 14:09 -12.83350 -68.04512 32068 ft 509 kts 182°
2026-05-06 14:09 -12.90429 -68.04874 32071 ft 509 kts 182°
2026-05-06 14:10 -12.97509 -68.05237 32065 ft 509 kts 182°
2026-05-06 14:10 -13.04585 -68.05600 32077 ft 509 kts 182°
2026-05-06 14:11 -13.11654 -68.05962 32073 ft 508 kts 182°
2026-05-06 14:11 -13.18676 -68.06323 32069 ft 508 kts 182°
2026-05-06 14:12 -13.25740 -68.06686 32073 ft 508 kts 183°
2026-05-06 14:12 -13.32808 -68.07049 32066 ft 508 kts 183°
2026-05-06 14:13 -13.39873 -68.07412 32070 ft 508 kts 183°
2026-05-06 14:13 -13.46932 -68.07775 32075 ft 507 kts 183°
2026-05-06 14:14 -13.53939 -68.08136 32076 ft 507 kts 183°
2026-05-06 14:14 -13.60996 -68.08500 32080 ft 507 kts 183°
2026-05-06 14:15 -13.68046 -68.08863 32079 ft 507 kts 183°
2026-05-06 14:15 -13.75100 -68.09227 32086 ft 507 kts 183°
2026-05-06 14:16 -13.82160 -68.09591 32088 ft 508 kts 183°
2026-05-06 14:16 -13.89219 -68.09956 32094 ft 508 kts 183°
2026-05-06 14:17 -13.96244 -68.10318 32093 ft 508 kts 183°
2026-05-06 14:17 -14.03315 -68.10684 32104 ft 508 kts 183°
2026-05-06 14:18 -14.10376 -68.11049 32109 ft 508 kts 183°
2026-05-06 14:18 -14.17445 -68.11415 32113 ft 508 kts 183°
2026-05-06 14:19 -14.24497 -68.11781 32126 ft 507 kts 183°
2026-05-06 14:19 -14.31503 -68.12152 32120 ft 507 kts 183°
2026-05-06 14:20 -14.38562 -68.12506 32121 ft 507 kts 183°
2026-05-06 14:20 -14.45625 -68.12861 32127 ft 507 kts 183°
2026-05-06 14:21 -14.52677 -68.13220 32135 ft 507 kts 183°
2026-05-06 14:21 -14.59685 -68.13579 32140 ft 507 kts 183°
2026-05-06 14:22 -14.66736 -68.13940 32139 ft 507 kts 183°
2026-05-06 14:22 -14.73779 -68.14301 32136 ft 507 kts 184°
2026-05-06 14:23 -14.80833 -68.14662 32135 ft 507 kts 184°
2026-05-06 14:23 -14.87880 -68.15024 32133 ft 506 kts 184°
2026-05-06 14:24 -14.94918 -68.15385 32136 ft 506 kts 184°
2026-05-06 14:24 -15.01910 -68.15744 32138 ft 506 kts 184°
2026-05-06 14:25 -15.08948 -68.16106 32131 ft 506 kts 184°
2026-05-06 14:25 -15.15978 -68.16467 32132 ft 505 kts 184°
2026-05-06 14:26 -15.23006 -68.16828 32135 ft 505 kts 184°
2026-05-06 14:26 -15.30029 -68.17190 32136 ft 504 kts 184°
2026-05-06 14:27 -15.36995 -68.17549 32146 ft 504 kts 184°
2026-05-06 14:27 -15.44011 -68.17911 32158 ft 504 kts 184°
2026-05-06 14:28 -15.51029 -68.18273 32167 ft 505 kts 184°
2026-05-06 14:28 -15.58065 -68.18636 32174 ft 505 kts 184°
2026-05-06 14:29 -15.65086 -68.18990 32199 ft 506 kts 184°
2026-05-06 14:29 -15.72124 -68.19336 32219 ft 505 kts 184°
2026-05-06 14:30 -15.79112 -68.19682 32238 ft 506 kts 184°
2026-05-06 14:30 -15.86150 -68.20030 32262 ft 506 kts 184°
2026-05-06 14:31 -15.93184 -68.20380 32283 ft 506 kts 184°
2026-05-06 14:31 -16.00227 -68.20728 32292 ft 506 kts 184°
2026-05-06 14:32 -16.07268 -68.21078 32303 ft 507 kts 185°
2026-05-06 14:32 -16.14322 -68.21433 32302 ft 507 kts 185°
2026-05-06 14:33 -16.21344 -68.21788 32413 ft 507 kts 185°
2026-05-06 14:33 -16.28396 -68.22146 32528 ft 507 kts 185°
2026-05-06 14:34 -16.35450 -68.22502 32647 ft 506 kts 185°
2026-05-06 14:34 -16.42442 -68.22856 32768 ft 505 kts 185°
2026-05-06 14:35 -16.49463 -68.23212 32775 ft 504 kts 185°
2026-05-06 14:35 -16.56450 -68.23782 32776 ft 503 kts 188°
2026-05-06 14:36 -16.63403 -68.24565 32703 ft 502 kts 188°
2026-05-06 14:36 -16.70362 -68.25356 32570 ft 503 kts 188°
2026-05-06 14:37 -16.76153 -68.25991 32468 ft 503 kts 188°
2026-05-06 14:37 -16.84261 -68.26864 32306 ft 504 kts 188°
2026-05-06 14:38 -16.91253 -68.27617 32264 ft 504 kts 188°
2026-05-06 14:38 -16.97067 -68.28244 32263 ft 505 kts 188°
2026-05-06 14:39 -17.04054 -68.28999 32259 ft 505 kts 188°
2026-05-06 14:39 -17.11048 -68.29756 32259 ft 505 kts 188°
2026-05-06 14:40 -17.18043 -68.30514 32255 ft 505 kts 188°
2026-05-06 14:40 -17.25037 -68.31272 32265 ft 505 kts 188°
2026-05-06 14:41 -17.31991 -68.32026 32262 ft 505 kts 188°
2026-05-06 14:41 -17.38986 -68.32785 32263 ft 505 kts 188°
2026-05-06 14:42 -17.45968 -68.33542 32259 ft 504 kts 188°
2026-05-06 14:42 -17.52952 -68.34291 32256 ft 504 kts 188°
2026-05-06 14:43 -17.59932 -68.35040 32253 ft 504 kts 188°
2026-05-06 14:43 -17.66914 -68.35791 32245 ft 504 kts 188°
2026-05-06 14:44 -17.73895 -68.36542 32243 ft 504 kts 188°
2026-05-06 14:45 -17.84323 -68.37665 32233 ft 504 kts 188°
2026-05-06 14:45 -17.91305 -68.38419 32225 ft 504 kts 188°
2026-05-06 14:46 -17.98288 -68.39172 32213 ft 504 kts 188°
2026-05-06 14:46 -18.05268 -68.39926 32213 ft 504 kts 188°
2026-05-06 14:47 -18.12248 -68.40671 32218 ft 504 kts 188°
2026-05-06 14:47 -18.19232 -68.41414 32210 ft 504 kts 188°
2026-05-06 14:48 -18.26215 -68.42157 32206 ft 504 kts 188°
2026-05-06 14:48 -18.33166 -68.42899 32201 ft 504 kts 189°
2026-05-06 14:49 -18.40153 -68.43645 32201 ft 504 kts 189°
2026-05-06 14:49 -18.47124 -68.44391 32200 ft 504 kts 189°
2026-05-06 14:50 -18.54101 -68.45138 32199 ft 504 kts 189°
2026-05-06 14:50 -18.61078 -68.45885 32197 ft 504 kts 189°
2026-05-06 14:51 -18.68012 -68.46629 32195 ft 504 kts 189°
2026-05-06 14:51 -18.74983 -68.47377 32202 ft 504 kts 189°
2026-05-06 14:52 -18.81961 -68.48126 32200 ft 504 kts 189°
2026-05-06 14:52 -18.88930 -68.48875 32203 ft 503 kts 189°
2026-05-06 14:53 -18.95904 -68.49625 32202 ft 503 kts 189°
2026-05-06 14:53 -19.02876 -68.50376 32201 ft 503 kts 189°
2026-05-06 14:54 -19.09841 -68.51126 32207 ft 503 kts 189°
2026-05-06 14:54 -19.16759 -68.51872 32206 ft 503 kts 189°
2026-05-06 14:55 -19.23726 -68.52624 32203 ft 503 kts 189°
2026-05-06 14:55 -19.30691 -68.53377 32184 ft 503 kts 189°
2026-05-06 14:56 -19.37649 -68.54129 32209 ft 502 kts 189°
2026-05-06 14:56 -19.44613 -68.54882 32194 ft 503 kts 189°
2026-05-06 14:57 -19.51566 -68.55635 32217 ft 502 kts 189°
2026-05-06 14:57 -19.58522 -68.56390 32202 ft 502 kts 189°
2026-05-06 14:58 -19.65484 -68.57145 32210 ft 503 kts 189°
2026-05-06 14:58 -19.72402 -68.57896 32210 ft 503 kts 189°
2026-05-06 14:59 -19.79361 -68.58652 32215 ft 502 kts 189°
2026-05-06 14:59 -19.86310 -68.59408 32224 ft 502 kts 189°
2026-05-06 15:00 -19.93266 -68.60165 32226 ft 502 kts 189°
2026-05-06 15:00 -20.00218 -68.60923 32225 ft 503 kts 189°
2026-05-06 15:01 -20.07182 -68.61682 32214 ft 503 kts 189°
2026-05-06 15:01 -20.14111 -68.62439 32220 ft 503 kts 189°
2026-05-06 15:02 -20.21086 -68.63201 32228 ft 504 kts 189°
2026-05-06 15:02 -20.28065 -68.63965 32219 ft 504 kts 189°
2026-05-06 15:03 -20.35048 -68.64729 32223 ft 504 kts 189°
2026-05-06 15:03 -20.42030 -68.65494 32236 ft 504 kts 189°
2026-05-06 15:04 -20.49018 -68.66260 32241 ft 504 kts 189°
2026-05-06 15:04 -20.56009 -68.67016 32244 ft 504 kts 189°
2026-05-06 15:05 -20.62944 -68.67746 32244 ft 504 kts 189°
2026-05-06 15:05 -20.69923 -68.68480 32249 ft 503 kts 189°
2026-05-06 15:06 -20.76892 -68.69217 32252 ft 503 kts 189°
2026-05-06 15:06 -20.83853 -68.69956 32257 ft 502 kts 189°
2026-05-06 15:07 -20.90809 -68.70694 32257 ft 502 kts 189°
2026-05-06 15:07 -20.97759 -68.71434 32266 ft 501 kts 190°
2026-05-06 15:08 -21.04665 -68.72169 32264 ft 502 kts 189°
2026-05-06 15:08 -21.11610 -68.72908 32256 ft 502 kts 190°
2026-05-06 15:09 -21.18560 -68.73649 32261 ft 501 kts 190°
2026-05-06 15:09 -21.25502 -68.74381 32236 ft 501 kts 189°
2026-05-06 15:10 -21.32434 -68.75107 32248 ft 500 kts 190°
2026-05-06 15:10 -21.39361 -68.75834 32231 ft 500 kts 190°
2026-05-06 15:11 -21.46288 -68.76564 32235 ft 500 kts 190°
2026-05-06 15:11 -21.53172 -68.77291 32224 ft 501 kts 190°
2026-05-06 15:12 -21.60112 -68.78024 32223 ft 501 kts 190°
2026-05-06 15:12 -21.67052 -68.78756 32219 ft 501 kts 190°
2026-05-06 15:13 -21.74001 -68.79492 32214 ft 502 kts 190°
2026-05-06 15:13 -21.80985 -68.80233 32207 ft 504 kts 190°
2026-05-06 15:14 -21.87933 -68.80969 32207 ft 505 kts 190°
2026-05-06 15:14 -21.94944 -68.81712 32195 ft 507 kts 190°
2026-05-06 15:15 -22.01982 -68.82458 32194 ft 508 kts 190°
2026-05-06 15:15 -22.09018 -68.83205 32187 ft 508 kts 190°
2026-05-06 15:16 -22.16055 -68.83956 32174 ft 508 kts 190°
2026-05-06 15:16 -22.23085 -68.84705 32168 ft 508 kts 191°
2026-05-06 15:17 -22.30130 -68.85456 32158 ft 509 kts 191°
2026-05-06 15:17 -22.37190 -68.86209 32160 ft 509 kts 191°
2026-05-06 15:18 -22.44196 -68.86957 32158 ft 509 kts 191°
2026-05-06 15:18 -22.51247 -68.87749 32152 ft 508 kts 193°
2026-05-06 15:19 -22.58233 -68.88912 32152 ft 507 kts 195°
2026-05-06 15:19 -22.65177 -68.90173 32145 ft 506 kts 195°
2026-05-06 15:20 -22.72130 -68.91415 32147 ft 506 kts 195°
2026-05-06 15:20 -22.79082 -68.92631 32150 ft 505 kts 195°
2026-05-06 15:21 -22.86023 -68.93839 32156 ft 505 kts 195°
2026-05-06 15:21 -22.92979 -68.95053 32153 ft 506 kts 195°
2026-05-06 15:22 -22.99904 -68.96264 32162 ft 507 kts 195°
2026-05-06 15:22 -23.06872 -68.97484 32150 ft 508 kts 195°
2026-05-06 15:23 -23.13857 -68.98708 32155 ft 508 kts 195°
2026-05-06 15:23 -23.20844 -68.99934 32154 ft 508 kts 196°
2026-05-06 15:24 -23.27822 -69.01160 32153 ft 508 kts 196°
2026-05-06 15:24 -23.34812 -69.02388 32153 ft 508 kts 196°
2026-05-06 15:25 -23.41760 -69.03599 32140 ft 508 kts 196°
2026-05-06 15:25 -23.48736 -69.04813 32151 ft 507 kts 196°
2026-05-06 15:26 -23.55716 -69.06032 32151 ft 507 kts 196°
2026-05-06 15:26 -23.62696 -69.07253 32149 ft 508 kts 196°
2026-05-06 15:27 -23.68504 -69.08270 32138 ft 507 kts 196°
2026-05-06 15:27 -23.76606 -69.09690 32137 ft 507 kts 197°
2026-05-06 15:28 -23.82445 -69.10714 32144 ft 506 kts 197°
2026-05-06 15:28 -23.89341 -69.11924 32151 ft 505 kts 197°
2026-05-06 15:29 -23.96288 -69.13147 32149 ft 506 kts 197°
2026-05-06 15:29 -24.03245 -69.14372 32149 ft 506 kts 197°
2026-05-06 15:30 -24.10202 -69.15597 32160 ft 506 kts 197°
2026-05-06 15:30 -24.17116 -69.16817 32157 ft 506 kts 197°
2026-05-06 15:31 -24.24068 -69.18045 32144 ft 506 kts 197°
2026-05-06 15:31 -24.31019 -69.19272 32144 ft 505 kts 197°
2026-05-06 15:32 -24.41448 -69.21120 32152 ft 505 kts 198°
2026-05-06 15:32 -24.48344 -69.22342 32151 ft 505 kts 198°
2026-05-06 15:33 -24.55286 -69.23574 32163 ft 505 kts 198°
2026-05-06 15:33 -24.62227 -69.24807 32164 ft 505 kts 198°
2026-05-06 15:34 -24.69158 -69.26039 32161 ft 504 kts 198°
2026-05-06 15:34 -24.76069 -69.27270 32183 ft 503 kts 198°
2026-05-06 15:35 -24.82988 -69.28504 32174 ft 503 kts 198°
2026-05-06 15:35 -24.89892 -69.29736 32181 ft 502 kts 198°
2026-05-06 15:36 -24.96798 -69.30970 32186 ft 502 kts 199°
2026-05-06 15:36 -25.03697 -69.32204 32190 ft 502 kts 199°
2026-05-06 15:37 -25.10595 -69.33440 32191 ft 502 kts 199°
2026-05-06 15:37 -25.17487 -69.34676 32192 ft 502 kts 199°
2026-05-06 15:38 -25.24381 -69.35913 32187 ft 501 kts 199°
2026-05-06 15:38 -25.31222 -69.37143 32185 ft 501 kts 199°
2026-05-06 15:39 -25.38101 -69.38380 32181 ft 500 kts 199°
2026-05-06 15:39 -25.44978 -69.39619 32186 ft 500 kts 199°
2026-05-06 15:40 -25.51845 -69.40858 32186 ft 499 kts 199°
2026-05-06 15:40 -25.58530 -69.42550 32184 ft 485 kts 208°
2026-05-06 15:41 -25.64898 -69.44975 32175 ft 483 kts 210°
2026-05-06 15:41 -25.71203 -69.47411 32168 ft 483 kts 209°
2026-05-06 15:42 -25.77567 -69.49835 32179 ft 483 kts 209°
2026-05-06 15:42 -25.83944 -69.52244 32167 ft 485 kts 209°
2026-05-06 15:43 -25.90342 -69.54656 32158 ft 486 kts 209°
2026-05-06 15:43 -25.96752 -69.57076 32170 ft 486 kts 209°
2026-05-06 15:44 -26.03165 -69.59501 32158 ft 487 kts 209°
2026-05-06 15:44 -26.09546 -69.61917 32161 ft 487 kts 209°
2026-05-06 15:45 -26.15966 -69.64352 32157 ft 487 kts 210°
2026-05-06 15:45 -26.22384 -69.66788 32159 ft 487 kts 210°
2026-05-06 15:46 -26.28806 -69.69229 32157 ft 488 kts 210°
2026-05-06 15:46 -26.35226 -69.71671 32149 ft 487 kts 210°
2026-05-06 15:47 -26.41627 -69.74108 32148 ft 484 kts 210°
2026-05-06 15:47 -26.47967 -69.76523 32124 ft 480 kts 210°
2026-05-06 15:48 -26.54270 -69.78932 32152 ft 478 kts 210°
2026-05-06 15:48 -26.60522 -69.81322 32145 ft 477 kts 210°
2026-05-06 15:49 -26.66804 -69.83728 32130 ft 476 kts 210°
2026-05-06 15:49 -26.73064 -69.86127 32130 ft 475 kts 210°
2026-05-06 15:50 -26.79312 -69.88525 32138 ft 474 kts 210°
2026-05-06 15:50 -26.85541 -69.90917 32122 ft 472 kts 210°
2026-05-06 15:51 -26.91743 -69.93301 32123 ft 470 kts 211°
2026-05-06 15:51 -26.97897 -69.95671 32116 ft 470 kts 211°
2026-05-06 15:52 -27.04080 -69.98056 32112 ft 470 kts 211°
2026-05-06 15:52 -27.10267 -70.00444 32109 ft 470 kts 211°
2026-05-06 15:53 -27.16455 -70.02835 32108 ft 470 kts 211°
2026-05-06 15:53 -27.22645 -70.05230 32114 ft 471 kts 211°
2026-05-06 15:54 -27.28870 -70.07632 32129 ft 473 kts 210°
2026-05-06 15:54 -27.35125 -70.09983 32130 ft 475 kts 210°
2026-05-06 15:55 -27.41363 -70.12315 32124 ft 475 kts 210°
2026-05-06 15:55 -27.47645 -70.14670 32124 ft 475 kts 210°
2026-05-06 15:56 -27.53911 -70.17030 32118 ft 474 kts 210°
2026-05-06 15:56 -27.60173 -70.19391 32125 ft 474 kts 210°
2026-05-06 15:57 -27.66389 -70.21738 32126 ft 474 kts 210°
2026-05-06 15:57 -27.72642 -70.24102 32116 ft 473 kts 210°
2026-05-06 15:58 -27.78880 -70.26465 32120 ft 472 kts 210°
2026-05-06 15:58 -27.85095 -70.28821 32122 ft 471 kts 210°
2026-05-06 15:59 -27.91311 -70.31180 32137 ft 471 kts 210°
2026-05-06 15:59 -27.97531 -70.33546 32138 ft 471 kts 210°
2026-05-06 16:00 -28.03710 -70.35897 32142 ft 472 kts 210°
2026-05-06 16:00 -28.09974 -70.38286 32143 ft 473 kts 210°
2026-05-06 16:01 -28.16180 -70.40651 32145 ft 474 kts 210°
2026-05-06 16:01 -28.22435 -70.43037 32142 ft 474 kts 210°
2026-05-06 16:02 -28.28681 -70.45425 32129 ft 473 kts 211°
2026-05-06 16:02 -28.34894 -70.47802 32137 ft 469 kts 211°
2026-05-06 16:03 -28.41072 -70.50170 32156 ft 469 kts 211°
2026-05-06 16:03 -28.47266 -70.52536 32137 ft 472 kts 209°
2026-05-06 16:04 -28.53814 -70.54089 32092 ft 492 kts 198°
2026-05-06 16:04 -28.60636 -70.54723 32163 ft 499 kts 195°
2026-05-06 16:05 -28.67594 -70.55289 32128 ft 501 kts 196°
2026-05-06 16:05 -28.74542 -70.55923 32118 ft 499 kts 197°
2026-05-06 16:06 -28.81455 -70.56583 32140 ft 498 kts 197°
2026-05-06 16:06 -28.88353 -70.57241 32142 ft 497 kts 197°
2026-05-06 16:07 -28.95242 -70.57901 32145 ft 497 kts 197°
2026-05-06 16:07 -29.02071 -70.58555 32139 ft 495 kts 197°
2026-05-06 16:08 -29.08939 -70.59215 32154 ft 495 kts 197°
2026-05-06 16:08 -29.15835 -70.59881 32165 ft 497 kts 197°
2026-05-06 16:09 -29.22731 -70.60548 32145 ft 496 kts 197°
2026-05-06 16:09 -29.29565 -70.61206 32166 ft 496 kts 197°
2026-05-06 16:10 -29.36456 -70.61872 32165 ft 496 kts 197°
2026-05-06 16:10 -29.43333 -70.62536 32168 ft 494 kts 197°
2026-05-06 16:11 -29.50186 -70.63199 32169 ft 494 kts 197°
2026-05-06 16:11 -29.57038 -70.63869 32165 ft 493 kts 197°
2026-05-06 16:12 -29.63840 -70.64527 32168 ft 492 kts 197°
2026-05-06 16:12 -29.70658 -70.65188 32146 ft 491 kts 197°
2026-05-06 16:13 -29.77482 -70.65856 32144 ft 492 kts 197°
2026-05-06 16:13 -29.84311 -70.66524 32154 ft 493 kts 197°
2026-05-06 16:14 -29.91136 -70.67193 32118 ft 491 kts 197°
2026-05-06 16:14 -29.97934 -70.67852 32164 ft 489 kts 197°
2026-05-06 16:15 -30.04723 -70.68518 32151 ft 489 kts 197°
2026-05-06 16:15 -30.11462 -70.69179 32145 ft 489 kts 197°
2026-05-06 16:16 -30.18234 -70.69845 32149 ft 488 kts 197°
2026-05-06 16:16 -30.24991 -70.70509 32159 ft 487 kts 197°
2026-05-06 16:17 -30.30647 -70.71065 32177 ft 485 kts 197°
2026-05-06 16:17 -30.37344 -70.71727 32168 ft 486 kts 197°
2026-05-06 16:18 -30.44098 -70.72397 32170 ft 487 kts 197°
2026-05-06 16:18 -30.50855 -70.73064 32159 ft 488 kts 197°
2026-05-06 16:19 -30.57624 -70.73732 32146 ft 487 kts 197°
2026-05-06 16:19 -30.64368 -70.74398 32180 ft 485 kts 197°
2026-05-06 16:20 -30.71085 -70.75049 32154 ft 481 kts 197°
2026-05-06 16:20 -30.77766 -70.75703 32161 ft 484 kts 197°
2026-05-06 16:21 -30.84536 -70.76375 32171 ft 492 kts 197°
2026-05-06 16:21 -30.91333 -70.77035 32164 ft 487 kts 196°
2026-05-06 16:22 -30.98078 -70.77692 32167 ft 485 kts 197°
2026-05-06 16:22 -31.04814 -70.78350 32158 ft 486 kts 197°
2026-05-06 16:23 -31.11518 -70.79020 32157 ft 487 kts 197°
2026-05-06 16:23 -31.18281 -70.79685 32170 ft 487 kts 197°
2026-05-06 16:24 -31.25048 -70.80357 32151 ft 490 kts 197°
2026-05-06 16:24 -31.31837 -70.81027 32151 ft 489 kts 197°
2026-05-06 16:25 -31.38587 -70.81691 32157 ft 489 kts 197°
2026-05-06 16:25 -31.45247 -70.82330 32079 ft 473 kts 197°
2026-05-06 16:26 -31.51721 -70.82970 32163 ft 465 kts 197°
2026-05-06 16:26 -31.58250 -70.83634 32157 ft 478 kts 197°
2026-05-06 16:27 -31.64846 -70.84277 32171 ft 473 kts 197°
2026-05-06 16:27 -31.71401 -70.84922 32121 ft 473 kts 197°
2026-05-06 16:28 -31.77990 -70.85427 32140 ft 483 kts 192°
2026-05-06 16:28 -31.84792 -70.85161 32123 ft 491 kts 188°
2026-05-06 16:29 -31.91558 -70.84762 32124 ft 488 kts 189°
2026-05-06 16:29 -31.98345 -70.84465 32126 ft 487 kts 189°
2026-05-06 16:30 -32.03980 -70.84268 32119 ft 487 kts 189°
2026-05-06 16:30 -32.11875 -70.83996 32116 ft 483 kts 189°
2026-05-06 16:31 -32.18539 -70.83756 32109 ft 480 kts 189°
2026-05-06 16:31 -32.25202 -70.83520 32117 ft 477 kts 189°
2026-05-06 16:32 -32.31777 -70.83281 32130 ft 467 kts 189°
2026-05-06 16:32 -32.38318 -70.83053 32122 ft 474 kts 189°
2026-05-06 16:33 -32.44961 -70.82818 32115 ft 479 kts 189°
2026-05-06 16:34 -32.54802 -70.82452 32150 ft 467 kts 189°
2026-05-06 16:34 -32.61416 -70.82225 32107 ft 480 kts 189°
2026-05-06 16:35 -32.67973 -70.81970 32078 ft 455 kts 189°
2026-05-06 16:35 -32.71083 -70.81848 32084 ft 439 kts 190°
2026-05-06 16:35 -32.74083 -70.81735 32071 ft 423 kts 191°
2026-05-06 16:36 -32.79901 -70.81535 32093 ft 417 kts 191°
2026-05-06 16:36 -32.85681 -70.81338 32082 ft 417 kts 191°
2026-05-06 16:37 -32.91478 -70.81128 32083 ft 417 kts 190°
2026-05-06 16:37 -32.97273 -70.80915 32085 ft 417 kts 190°
2026-05-06 16:38 -33.03053 -70.80694 32092 ft 414 kts 190°
2026-05-06 16:38 -33.08203 -70.80496 32082 ft 416 kts 190°
2026-05-06 16:39 -33.14014 -70.80286 32090 ft 420 kts 190°
2026-05-06 16:39 -33.19874 -70.80083 32081 ft 422 kts 190°
2026-05-06 16:40 -33.25747 -70.79890 32084 ft 423 kts 189°
2026-05-06 16:40 -33.31625 -70.79698 32069 ft 422 kts 189°
2026-05-06 16:41 -33.37478 -70.79499 32072 ft 418 kts 189°
2026-05-06 16:41 -33.43244 -70.79294 32067 ft 415 kts 189°
2026-05-06 16:42 -33.49016 -70.79082 32086 ft 416 kts 189°
2026-05-06 16:42 -33.54842 -70.78881 32088 ft 420 kts 189°
2026-05-06 16:43 -33.60651 -70.78957 32082 ft 407 kts 200°
2026-05-06 16:43 -33.63355 -70.79731 32082 ft 392 kts 211°
2026-05-06 16:43 -33.65789 -70.81050 32073 ft 376 kts 222°
2026-05-06 16:43 -33.67866 -70.82843 32091 ft 362 kts 233°
2026-05-06 16:44 -33.69535 -70.85026 32079 ft 348 kts 244°
2026-05-06 16:44 -33.70732 -70.87491 32072 ft 336 kts 255°
2026-05-06 16:44 -33.71419 -70.90120 32079 ft 325 kts 266°
2026-05-06 16:44 -33.71579 -70.92792 32090 ft 318 kts 277°
2026-05-06 16:45 -33.71219 -70.95397 32077 ft 316 kts 288°
2026-05-06 16:45 -33.70369 -70.97783 32071 ft 315 kts 299°
2026-05-06 16:45 -33.69044 -70.99905 32084 ft 321 kts 310°
2026-05-06 16:45 -33.67303 -71.01640 32086 ft 331 kts 321°
2026-05-06 16:46 -33.65219 -71.02902 32065 ft 341 kts 332°
2026-05-06 16:46 -33.62890 -71.03598 32106 ft 351 kts 343°
2026-05-06 16:46 -33.60397 -71.03734 32067 ft 364 kts 351°
2026-05-06 16:47 -33.55318 -71.03292 31929 ft 371 kts 354°
2026-05-06 16:47 -33.52734 -71.03000 31480 ft 375 kts 354°
2026-05-06 16:47 -33.50129 -71.02704 31041 ft 375 kts 355°
2026-05-06 16:47 -33.47534 -71.02409 30609 ft 374 kts 355°
2026-05-06 16:48 -33.44946 -71.02115 30164 ft 373 kts 355°
2026-05-06 16:48 -33.42371 -71.01825 29668 ft 371 kts 355°
2026-05-06 16:48 -33.39805 -71.01544 29139 ft 369 kts 355°
2026-05-06 16:48 -33.37249 -71.01274 28635 ft 368 kts 355°
2026-05-06 16:49 -33.34696 -71.01010 28112 ft 368 kts 355°
2026-05-06 16:49 -33.32144 -71.00755 27605 ft 368 kts 355°
2026-05-06 16:49 -33.29587 -71.00510 27099 ft 369 kts 355°
2026-05-06 16:49 -33.27023 -71.00275 26594 ft 370 kts 355°
2026-05-06 16:50 -33.24452 -71.00049 26117 ft 370 kts 355°
2026-05-06 16:50 -33.21876 -70.99833 25611 ft 370 kts 355°
2026-05-06 16:50 -33.19341 -70.99630 25102 ft 368 kts 355°
2026-05-06 16:50 -33.17622 -70.99495 24849 ft 366 kts 355°
2026-05-06 16:51 -33.14247 -70.99248 24246 ft 366 kts 354°
2026-05-06 16:51 -33.11701 -70.99074 23779 ft 367 kts 354°
2026-05-06 16:51 -33.09148 -70.98907 23271 ft 367 kts 354°
2026-05-06 16:51 -33.06601 -70.98749 22747 ft 366 kts 355°
2026-05-06 16:52 -33.04060 -70.98609 22220 ft 365 kts 355°
2026-05-06 16:52 -33.01523 -70.98486 21715 ft 364 kts 355°
2026-05-06 16:52 -32.98989 -70.98382 21218 ft 364 kts 355°
2026-05-06 16:52 -32.96460 -70.98296 20712 ft 363 kts 355°
2026-05-06 16:53 -32.93939 -70.98228 20218 ft 361 kts 355°
2026-05-06 16:53 -32.91435 -70.98176 19754 ft 360 kts 355°
2026-05-06 16:53 -32.88932 -70.98144 19283 ft 359 kts 355°
2026-05-06 16:53 -32.86469 -70.98144 18804 ft 358 kts 354°
2026-05-06 16:54 -32.83982 -70.98155 18343 ft 357 kts 354°
2026-05-06 16:54 -32.81501 -70.98174 17815 ft 355 kts 354°
2026-05-06 16:54 -32.79034 -70.98203 17301 ft 354 kts 354°
2026-05-06 16:54 -32.76578 -70.98243 16789 ft 352 kts 354°
2026-05-06 16:55 -32.74131 -70.98293 16324 ft 349 kts 354°
2026-05-06 16:55 -32.71745 -70.98349 16149 ft 337 kts 354°
2026-05-06 16:55 -32.69445 -70.98401 16090 ft 323 kts 354°
2026-05-06 16:55 -32.67235 -70.98447 16092 ft 310 kts 354°
2026-05-06 16:56 -32.65151 -70.98483 16079 ft 298 kts 354°
2026-05-06 16:56 -32.63081 -70.98513 16109 ft 297 kts 354°
2026-05-06 16:56 -32.61013 -70.98546 16081 ft 297 kts 354°
2026-05-06 16:56 -32.58953 -70.98581 16099 ft 296 kts 354°
2026-05-06 16:57 -32.56898 -70.98622 16081 ft 294 kts 354°
2026-05-06 16:57 -32.54859 -70.98666 16112 ft 293 kts 354°
2026-05-06 16:57 -32.52800 -70.98713 16108 ft 297 kts 354°
2026-05-06 16:57 -32.50723 -70.98765 16095 ft 299 kts 354°
2026-05-06 16:58 -32.48639 -70.98817 16113 ft 300 kts 354°
2026-05-06 16:58 -32.46550 -70.98872 16100 ft 300 kts 354°
2026-05-06 16:58 -32.44458 -70.98930 16100 ft 300 kts 354°
2026-05-06 16:58 -32.42366 -70.98991 16102 ft 301 kts 354°
2026-05-06 16:59 -32.40266 -70.99054 15808 ft 304 kts 354°
2026-05-06 16:59 -32.38133 -70.99125 15322 ft 309 kts 354°
2026-05-06 16:59 -32.35976 -70.99204 14867 ft 311 kts 354°
2026-05-06 16:59 -32.33805 -70.99295 14390 ft 313 kts 354°
2026-05-06 17:00 -32.31649 -70.99400 13955 ft 312 kts 356°
2026-05-06 17:00 -32.29518 -70.98888 13417 ft 321 kts 24°
2026-05-06 17:00 -32.27809 -70.97156 12936 ft 332 kts 50°
2026-05-06 17:00 -32.26727 -70.94708 12473 ft 340 kts 67°
2026-05-06 17:01 -32.26204 -70.91966 12159 ft 342 kts 82°
2026-05-06 17:01 -32.26338 -70.89191 12112 ft 337 kts 100°
2026-05-06 17:01 -32.27222 -70.86680 12089 ft 328 kts 123°
2026-05-06 17:01 -32.28796 -70.84740 12104 ft 329 kts 145°
2026-05-06 17:02 -32.30813 -70.83470 12088 ft 327 kts 162°
2026-05-06 17:02 -32.32990 -70.82955 12100 ft 321 kts 179°
2026-05-06 17:02 -32.35233 -70.82877 12096 ft 323 kts 181°
2026-05-06 17:02 -32.37483 -70.82848 12095 ft 323 kts 182°
2026-05-06 17:03 -32.39727 -70.82820 11948 ft 321 kts 181°
2026-05-06 17:03 -32.41938 -70.82783 11820 ft 313 kts 181°
2026-05-06 17:03 -32.44085 -70.82735 11654 ft 305 kts 181°
2026-05-06 17:03 -32.46185 -70.82678 11472 ft 299 kts 181°
2026-05-06 17:04 -32.48261 -70.82621 11165 ft 297 kts 180°
2026-05-06 17:04 -32.49634 -70.82582 10910 ft 298 kts 180°
2026-05-06 17:04 -32.52404 -70.82502 10377 ft 297 kts 180°
2026-05-06 17:04 -32.54438 -70.82441 10083 ft 295 kts 180°
2026-05-06 17:05 -32.55826 -70.82402 10059 ft 297 kts 180°
2026-05-06 17:05 -32.58583 -70.82321 10017 ft 299 kts 180°
2026-05-06 17:05 -32.59983 -70.82274 10023 ft 295 kts 180°
2026-05-06 17:05 -32.62689 -70.82175 10024 ft 293 kts 179°
2026-05-06 17:06 -32.64070 -70.82124 10008 ft 294 kts 180°
2026-05-06 17:06 -32.66108 -70.82048 9983 ft 290 kts 180°
2026-05-06 17:06 -32.68092 -70.81977 10037 ft 291 kts 180°
2026-05-06 17:06 -32.70134 -70.81904 10018 ft 294 kts 180°
2026-05-06 17:07 -32.72190 -70.81829 10018 ft 297 kts 180°
2026-05-06 17:07 -32.74268 -70.81753 10022 ft 299 kts 180°
2026-05-06 17:07 -32.76358 -70.81677 9907 ft 303 kts 180°
2026-05-06 17:07 -32.78478 -70.81601 9610 ft 303 kts 180°
2026-05-06 17:08 -32.80571 -70.81525 9359 ft 298 kts 180°
2026-05-06 17:08 -32.82626 -70.81449 9105 ft 293 kts 179°
2026-05-06 17:08 -32.84642 -70.81376 8837 ft 287 kts 179°
2026-05-06 17:08 -32.86614 -70.81304 8630 ft 281 kts 179°
2026-05-06 17:09 -32.88564 -70.81233 8382 ft 279 kts 179°
2026-05-06 17:09 -32.90497 -70.81162 8174 ft 277 kts 179°
2026-05-06 17:09 -32.92418 -70.81125 7947 ft 274 kts 185°
2026-05-06 17:09 -32.94291 -70.81366 7718 ft 272 kts 189°
2026-05-06 17:10 -32.96184 -70.81694 7502 ft 270 kts 189°
2026-05-06 17:10 -32.98041 -70.82002 7297 ft 269 kts 189°
2026-05-06 17:10 -32.99899 -70.82295 7089 ft 269 kts 189°
2026-05-06 17:10 -33.01766 -70.82438 6853 ft 268 kts 179°
2026-05-06 17:11 -33.03601 -70.82331 6648 ft 267 kts 177°
2026-05-06 17:11 -33.05449 -70.82188 6444 ft 265 kts 177°
2026-05-06 17:11 -33.07289 -70.82032 6252 ft 265 kts 176°
2026-05-06 17:11 -33.09133 -70.81889 6057 ft 266 kts 178°
2026-05-06 17:12 -33.10982 -70.81776 5847 ft 266 kts 178°
2026-05-06 17:12 -33.12829 -70.81675 5662 ft 265 kts 179°
2026-05-06 17:12 -33.14662 -70.81579 5464 ft 263 kts 179°
2026-05-06 17:12 -33.16485 -70.81482 5292 ft 262 kts 179°
2026-05-06 17:13 -33.18296 -70.81385 5120 ft 257 kts 179°
2026-05-06 17:13 -33.20032 -70.81291 4949 ft 251 kts 178°
2026-05-06 17:13 -33.21737 -70.81200 4637 ft 237 kts 178°
2026-05-06 17:13 -33.23330 -70.81114 4376 ft 221 kts 178°
2026-05-06 17:14 -33.24829 -70.81035 4044 ft 210 kts 178°
2026-05-06 17:14 -33.26257 -70.80958 3809 ft 201 kts 178°
2026-05-06 17:14 -33.27650 -70.80884 3545 ft 201 kts 178°
2026-05-06 17:14 -33.29045 -70.80809 3280 ft 199 kts 178°
2026-05-06 17:15 -33.30382 -70.80737 2974 ft 186 kts 178°
2026-05-06 17:15 -33.31621 -70.80669 2702 ft 170 kts 178°
2026-05-06 17:15 -33.32756 -70.80608 2454 ft 160 kts 179°
2026-05-06 17:15 -33.33894 -70.80549 2278 ft 166 kts 178°
2026-05-06 17:16 -33.35010 -70.80489 2027 ft 155 kts 178°
2026-05-06 17:16 -33.36051 -70.80431 1820 ft 145 kts 178°
2026-05-06 17:16 -33.37041 -70.80375 1617 ft 139 kts 178°
2026-05-06 17:16 -33.37934 -70.80339 1578 ft 110 kts 177°
2026-05-06 17:17 -33.38510 -70.80305 1577 ft 56 kts 178°
2026-05-06 17:17 -33.38909 -70.80281 1578 ft 56 kts 178°
2026-05-06 17:17 -33.39140 -70.80271 1577 ft 27 kts 178°
2026-05-06 17:17 -33.39313 -70.80210 1576 ft 27 kts 150°
2026-05-06 17:18 -33.39426 -70.80127 1572 ft 0 kts 146°
2026-05-06 17:18 -33.39433 -70.80122 1572 ft 2 kts 146°
2026-05-06 17:18 -33.39451 -70.80107 1571 ft 4 kts 146°
2026-05-06 17:18 -33.39479 -70.80085 1571 ft 5 kts 146°
2026-05-06 17:19 -33.39509 -70.80052 1570 ft 6 kts 130°
2026-05-06 17:19 -33.39527 -70.80003 1570 ft 7 kts 101°
2026-05-06 17:19 -33.39530 -70.79944 1569 ft 7 kts 90°
2026-05-06 17:19 -33.39528 -70.79882 1569 ft 8 kts 86°
2026-05-06 17:20 -33.39524 -70.79820 1569 ft 8 kts 85°
2026-05-06 17:20 -33.39521 -70.79758 1569 ft 7 kts 88°
2026-05-06 17:20 -33.39520 -70.79695 1569 ft 7 kts 88°
2026-05-06 17:20 -33.39518 -70.79632 1569 ft 7 kts 88°
2026-05-06 17:21 -33.39516 -70.79572 1569 ft 7 kts 86°
2026-05-06 17:21 -33.39515 -70.79559 1569 ft 7 kts 85°
2026-05-06 17:21 -33.39512 -70.79497 1569 ft 7 kts 88°
2026-05-06 17:22 -33.39511 -70.79435 1569 ft 7 kts 89°
2026-05-06 17:22 -33.39508 -70.79372 1569 ft 7 kts 85°
2026-05-06 17:22 -33.39505 -70.79310 1569 ft 7 kts 86°
2026-05-06 17:22 -33.39502 -70.79248 1569 ft 7 kts 87°
2026-05-06 17:23 -33.39499 -70.79185 1569 ft 7 kts 87°
2026-05-06 17:23 -33.39497 -70.79123 1569 ft 7 kts 88°
2026-05-06 17:23 -33.39495 -70.79061 1569 ft 7 kts 88°
2026-05-06 17:23 -33.39494 -70.78998 1569 ft 7 kts 88°
2026-05-06 17:24 -33.39493 -70.78936 1569 ft 7 kts 97°
2026-05-06 17:24 -33.39527 -70.78892 1569 ft 7 kts 159°
2026-05-06 17:24 -33.39578 -70.78888 1569 ft 8 kts 178°
2026-05-06 17:24 -33.39631 -70.78885 1569 ft 8 kts 178°
2026-05-06 17:25 -33.39683 -70.78883 1569 ft 8 kts 178°
2026-05-06 17:25 -33.39735 -70.78881 1569 ft 8 kts 178°
2026-05-06 17:25 -33.39788 -70.78878 1568 ft 8 kts 177°
2026-05-06 17:25 -33.39840 -70.78875 1568 ft 8 kts 176°
2026-05-06 17:26 -33.39893 -70.78871 1568 ft 8 kts 177°
2026-05-06 17:26 -33.39947 -70.78868 1568 ft 8 kts 177°
2026-05-06 17:26 -33.40000 -70.78865 1568 ft 8 kts 177°
2026-05-06 17:26 -33.40053 -70.78862 1568 ft 8 kts 176°
2026-05-06 17:27 -33.40106 -70.78858 1568 ft 8 kts 176°
2026-05-06 17:27 -33.40160 -70.78854 1568 ft 8 kts 178°
2026-05-06 17:27 -33.40213 -70.78853 1568 ft 8 kts 179°
2026-05-06 17:27 -33.40267 -70.78852 1568 ft 8 kts 179°
2026-05-06 17:28 -33.40321 -70.78851 1568 ft 8 kts 179°
2026-05-06 17:28 -33.40374 -70.78851 1568 ft 8 kts 179°
2026-05-06 17:28 -33.40428 -70.78850 1568 ft 8 kts 180°
2026-05-06 17:28 -33.40461 -70.78857 1568 ft 5 kts 205°
2026-05-06 17:29 -33.40487 -70.78880 1568 ft 5 kts 220°
2026-05-06 17:29 -33.40510 -70.78906 1568 ft 5 kts 225°
2026-05-06 17:29 -33.40528 -70.78928 1568 ft 3 kts 225°
2026-05-06 17:29 -33.40534 -70.78935 1568 ft 0 kts 225°
2026-05-06 17:30 -33.40534 -70.78936 1568 ft 0 kts 225°